sat.trackr.live / text

‹ back to catalog

STARLINK-31156

NORAD 58743 · 2024-005R

PAYLOAD ACTIVE UNKNOWN

§ Identity

Operator
Country
US
Launch date
2024-01-07
Launch site
AFETR
Launch vehicle
Mass (kg)
RCS (m²)

Purposes: comms

External: N2YO · Heavens-Above · Gunter

§ Orbital elements

Epoch: 2026-09-19T05:23:38.893344Z

Period
94.27 min
Inclination
43.0021°
Eccentricity
0.0001020
Mean motion
15.27573949 rev/d
Perigee alt
482.4 km
Apogee alt
483.8 km
Semi-major
6,861.2 km
B*
3.7615e-5
RAAN
206.6732°
Arg perigee
283.5944°
Mean anomaly
76.4794°
Rev number
15,009

§ Raw data

STARLINK-311561 58743U 24005R   26262.22475571  .00000773  00000+0  37615-4 0  99912 58743  43.0021 206.6732 0001020 283.5944  76.4794 15.27573949150097

JSON: /api/v1/satellites/58743 · /tle

For live sub-satellite position, see the globe view (requires WebGL).

§ Visibility from observer

Set your observer location to see the next 7 days of passes ≥ 10°. The values pass through the URL so the page stays shareable.

No JS? Fill the form by hand. The geolocation button needs JavaScript.